Location: Kimberly
(42.5380°N, 114.3640°W)
Time: 04:39:06
(UTC-06:00)

Hubble Space Telescope - Visible Passes

Search period start: 22 April 2018 00:00
Search period end: 02 May 2018 00:00
Orbit: 537 x 541 km, 28.5° (Epoch: 21 April)

Date Brightness Start Highest point End Pass type
(mag) Time Alt. Az. Time Alt. Az. Time Alt. Az.
28 Apr 3.1 22:11:59 10° SSW 22:12:26 11° SSW 22:12:26 11° SSW visible
29 Apr 3.0 22:01:30 10° SSW 22:02:49 11° S 22:02:49 11° S visible
30 Apr 3.0 21:51:10 10° SSW 21:52:24 11° S 21:53:08 11° S visible
01 May 3.0 21:40:59 10° SSW 21:41:56 11° S 21:42:52 10° S visible
